Location: Maiden
(35.5760°N, 81.2120°W)
Time: 03:17:08
(UTC-04:00)

Vanguard 2 - Pass Details

Date: 06 August 2020
Orbit: 553 x 2937 km, 32.9° (Epoch: 20 September)

Event Time Altitude Azimuth Distance (km) Brightness Sun altitude
Rises 03:11:06 0° 277° (W) 5,169 11.6 -32.7°
Enters shadow 03:11:35 - 277° (W) 5,009 11.5 -32.7°
Reaches altitude 10° 03:15:13 10° 274° (W) 3,769 - -32.3°
Maximum altitude 03:23:58 56° 199° (SSW) 1,231 - -31.4°
Drops below altitude 10° 03:29:18 10° 122° (ESE) 2,340 - -30.8°
Exits shadow 03:30:24 - 119° (ESE) 2,738 10.4 -30.7°
Sets 03:31:20 0° 117° (ESE) 3,093 10.7 -30.6°
